This is the latest recevied weather packets stored in our database for station/object M0JUI-1. If no packets are shown the sender has not sent any weather packets the latest 10 day(s).
| Time | Temp. | Humidity | Pressure | Rain* | Wind** | Luminosity | Snow |
|---|---|---|---|---|---|---|---|
| 1788462993 | 18.33° C | 14% | 1013.7 hPa | 0 mm | - | 0 W/m² | - |
| 1788462693 | 18.33° C | 13% | 1013.6 hPa | 0 mm | - | 0 W/m² | - |
| 1788462393 | 18.33° C | 12% | 1013.8 hPa | 0 mm | - | 0 W/m² | - |
| 1788462081 | 18.33° C | 12% | 1013.7 hPa | 0 mm | - | 0 W/m² | - |
| 1788461781 | 18.33° C | 12% | 1014 hPa | 0 mm | - | 0 W/m² | - |
| 1788461481 | 18.33° C | 11% | 1013.9 hPa | 0 mm | - | 0 W/m² | - |
| 1788461169 | 18.33° C | 12% | 1013.8 hPa | 0 mm | - | 0 W/m² | - |
| 1788460869 | 18.33° C | 13% | 1013.8 hPa | 0 mm | - | 3 W/m² | - |
| 1788460569 | 18.33° C | 13% | 1013.7 hPa | 0 mm | - | 3 W/m² | - |
| 1788460257 | 18.89° C | 13% | 1013.7 hPa | 0 mm | - | 2 W/m² | - |
| 1788459957 | 18.89° C | 13% | 1013.8 hPa | 0 mm | - | 4 W/m² | - |
| 1788459657 | 18.89° C | 13% | 1013.9 hPa | 0 mm | - | 5 W/m² | - |
| 1788459357 | 18.89° C | 12% | 1013.8 hPa | 0 mm | - | 8 W/m² | - |
| 1788459057 | 18.89° C | 12% | 1013.9 hPa | 0 mm | - | 16 W/m² | - |
| 1788458757 | 18.89° C | 11% | 1013.8 hPa | 0 mm | - | 12 W/m² | - |
| 1788458457 | 18.89° C | 10% | 1014.1 hPa | 0 mm | - | 10 W/m² | - |
| 1788458157 | 18.89° C | 10% | 1014.3 hPa | 0 mm | - | 17 W/m² | - |
| 1788457858 | 18.89° C | 10% | 1014.2 hPa | 0 mm | - | 29 W/m² | - |
| 1788457557 | 18.89° C | 9% | 1014.4 hPa | 0 mm | - | 23 W/m² | - |
| 1788457257 | 18.89° C | 9% | 1014.3 hPa | 0 mm | - | 21 W/m² | - |
| 1788456945 | 19.44° C | 8% | 1014.2 hPa | 0 mm | - | 39 W/m² | - |
| 1788456646 | 19.44° C | 8% | 1014.1 hPa | 0 mm | - | 54 W/m² | - |
| 1788456345 | 19.44° C | 7% | 1014.3 hPa | 0 mm | - | 56 W/m² | - |
| 1788456033 | 19.44° C | 7% | 1014.2 hPa | 0 mm | - | 57 W/m² | - |
| 1788455733 | 19.44° C | 6% | 1014.2 hPa | 0 mm | - | 59 W/m² | - |
* Rain latest hour (hover to see other rain measurements)
** Current wind speed in m/s (hover to see current wind gust speed)